| time (UTC) | temp F | wind direction | speed MPH | gust MPH | rain 1hr in | rain 24hr in | rain mn in | humidity % | barometer mb |
| 20260831145007 | 61 | 34 | 10.0 | 18.0 | 0.00 | 0.00 | 0.00 | 55 | 1021.6 |
| 20260831144504 | 61 | 33 | 10.0 | 18.0 | 0.00 | 0.00 | 0.00 | 55 | 1021.8 |
| 20260831144004 | 61 | 34 | 9.0 | 18.0 | 0.00 | 0.00 | 0.00 | 56 | 1021.8 |
| 20260831143504 | 61 | 34 | 9.0 | 14.0 | 0.00 | 0.00 | 0.00 | 56 | 1021.9 |
| 20260831143006 | 61 | 35 | 9.0 | 17.0 | 0.00 | 0.00 | 0.00 | 56 | 1021.9 |
| 20260831142504 | 60 | 39 | 8.0 | 17.0 | 0.00 | 0.00 | 0.00 | 57 | 1021.9 |
| 20260831142004 | 60 | 44 | 8.0 | 13.0 | 0.00 | 0.00 | 0.00 | 57 | 1022.0 |
| 20260831141504 | 60 | 45 | 8.0 | 15.0 | 0.00 | 0.00 | 0.00 | 57 | 1022.0 |
| 20260831141004 | 60 | 42 | 8.0 | 15.0 | 0.00 | 0.00 | 0.00 | 56 | 1022.1 |
| 20260831140504 | 60 | 43 | 8.0 | 15.0 | 0.00 | 0.00 | 0.00 | 57 | 1022.2 |
| 20260831140004 | 60 | 46 | 8.0 | 15.0 | 0.00 | 0.00 | 0.00 | 57 | 1022.3 |
| 20260831135504 | 60 | 48 | 8.0 | 17.0 | 0.00 | 0.00 | 0.00 | 57 | 1022.4 |
| 20260831135004 | 59 | 49 | 8.0 | 17.0 | 0.00 | 0.00 | 0.00 | 57 | 1022.4 |
| 20260831134504 | 59 | 53 | 7.0 | 14.0 | 0.00 | 0.00 | 0.00 | 57 | 1022.6 |
| 20260831134004 | 59 | 57 | 7.0 | 14.0 | 0.00 | 0.00 | 0.00 | 58 | 1022.6 |
| 20260831133504 | 59 | 57 | 7.0 | 13.0 | 0.00 | 0.00 | 0.00 | 58 | 1022.7 |
| 20260831133004 | 59 | 61 | 7.0 | 13.0 | 0.00 | 0.00 | 0.00 | 58 | 1022.8 |
| 20260831132504 | 59 | 62 | 8.0 | 13.0 | 0.00 | 0.00 | 0.00 | 58 | 1022.8 |
| 20260831132004 | 59 | 56 | 7.0 | 13.0 | 0.00 | 0.00 | 0.00 | 58 | 1022.8 |
| 20260831131503 | 59 | 55 | 7.0 | 14.0 | 0.00 | 0.00 | 0.00 | 59 | 1022.9 |
| 20260831131004 | 59 | 59 | 7.0 | 14.0 | 0.00 | 0.00 | 0.00 | 58 | 1022.9 |
| 20260831130504 | 59 | 58 | 7.0 | 14.0 | 0.00 | 0.00 | 0.00 | 58 | 1022.9 |
| 20260831130004 | 59 | 61 | 7.0 | 14.0 | 0.00 | 0.00 | 0.00 | 58 | 1023.0 |
| 20260831125503 | 59 | 67 | 7.0 | 13.0 | 0.00 | 0.00 | 0.00 | 58 | 1023.1 |
| 20260831125003 | 60 | 64 | 8.0 | 14.0 | 0.00 | 0.00 | 0.00 | 57 | 1023.2 |
| 20260831124504 | 60 | 61 | 7.0 | 14.0 | 0.00 | 0.00 | 0.00 | 57 | 1023.2 |
| 20260831124003 | 60 | 59 | 7.0 | 17.0 | 0.00 | 0.00 | 0.00 | 56 | 1023.3 |
| 20260831123503 | 60 | 60 | 7.0 | 17.0 | 0.00 | 0.00 | 0.00 | 56 | 1023.4 |
| 20260831123004 | 60 | 62 | 8.0 | 13.0 | 0.00 | 0.00 | 0.00 | 56 | 1023.4 |
| 20260831122504 | 60 | 60 | 8.0 | 14.0 | 0.00 | 0.00 | 0.00 | 56 | 1023.3 |
| 20260831122003 | 60 | 55 | 7.0 | 14.0 | 0.00 | 0.00 | 0.00 | 56 | 1023.2 |
| 20260831121503 | 60 | 57 | 7.0 | 17.0 | 0.00 | 0.00 | 0.00 | 56 | 1023.3 |
| 20260831121003 | 60 | 65 | 7.0 | 17.0 | 0.00 | 0.00 | 0.00 | 56 | 1023.3 |
| 20260831120504 | 60 | 64 | 7.0 | 15.0 | 0.00 | 0.00 | 0.00 | 56 | 1023.3 |
| 20260831120003 | 60 | 61 | 7.0 | 15.0 | 0.00 | 0.00 | 0.00 | 55 | 1023.4 |
| 20260831115504 | 60 | 62 | 7.0 | 17.0 | 0.00 | 0.00 | 0.00 | 56 | 1023.5 |
| 20260831115003 | 60 | 63 | 7.0 | 17.0 | 0.00 | 0.00 | 0.00 | 56 | 1023.4 |
| 20260831114503 | 60 | 68 | 7.0 | 14.0 | 0.00 | 0.00 | 0.00 | 57 | 1023.4 |
| 20260831114003 | 60 | 73 | 7.0 | 13.0 | 0.00 | 0.00 | 0.00 | 57 | 1023.5 |
| 20260831113504 | 60 | 75 | 7.0 | 18.0 | 0.00 | 0.00 | 0.00 | 58 | 1023.4 |
| 20260831113024 | 60 | 75 | 7.0 | 18.0 | 0.00 | 0.00 | 0.00 | 58 | 1023.4 |
| 20260831112503 | 60 | 73 | 8.0 | 18.0 | 0.00 | 0.00 | 0.00 | 58 | 1023.5 |
| 20260831112004 | 60 | 74 | 8.0 | 18.0 | 0.00 | 0.00 | 0.00 | 58 | 1023.5 |
| 20260831111504 | 60 | 74 | 8.0 | 15.0 | 0.00 | 0.00 | 0.00 | 58 | 1023.5 |
| 20260831111024 | 60 | 77 | 7.0 | 14.0 | 0.00 | 0.00 | 0.00 | 58 | 1023.5 |
| 20260831110504 | 60 | 76 | 7.0 | 17.0 | 0.00 | 0.00 | 0.00 | 58 | 1023.6 |
| 20260831110004 | 60 | 76 | 6.0 | 13.0 | 0.00 | 0.00 | 0.00 | 59 | 1023.6 |
| 20260831105504 | 60 | 77 | 6.0 | 13.0 | 0.00 | 0.00 | 0.00 | 59 | 1023.6 |
| 20260831105004 | 60 | 78 | 6.0 | 13.0 | 0.00 | 0.00 | 0.00 | 59 | 1023.6 |
| 20260831104504 | 60 | 84 | 7.0 | 13.0 | 0.00 | 0.00 | 0.00 | 58 | 1023.6 |
| 20260831104004 | 60 | 87 | 7.0 | 10.0 | 0.00 | 0.00 | 0.00 | 59 | 1023.7 |
| 20260831103504 | 60 | 86 | 6.0 | 10.0 | 0.00 | 0.00 | 0.00 | 59 | 1023.7 |
| 20260831103004 | 60 | 83 | 6.0 | 15.0 | 0.00 | 0.00 | 0.00 | 60 | 1023.7 |
| 20260831102524 | 60 | 84 | 6.0 | 15.0 | 0.00 | 0.00 | 0.00 | 61 | 1023.7 |
| 20260831102003 | 60 | 84 | 6.0 | 11.0 | 0.00 | 0.00 | 0.00 | 61 | 1023.8 |
| 20260831101524 | 60 | 85 | 6.0 | 11.0 | 0.00 | 0.00 | 0.00 | 62 | 1023.7 |
| 20260831101003 | 60 | 89 | 6.0 | 11.0 | 0.00 | 0.00 | 0.00 | 62 | 1023.8 |
| 20260831100504 | 60 | 93 | 5.0 | 11.0 | 0.00 | 0.00 | 0.00 | 62 | 1023.8 |
| 20260831100004 | 60 | 100 | 6.0 | 9.0 | 0.00 | 0.00 | 0.00 | 62 | 1023.9 |
| 20260831095503 | 60 | 102 | 6.0 | 9.0 | 0.00 | 0.00 | 0.00 | 62 | 1023.9 |
| 20260831095004 | 60 | 98 | 5.0 | 10.0 | 0.00 | 0.00 | 0.00 | 62 | 1024.0 |
| 20260831094503 | 61 | 93 | 5.0 | 10.0 | 0.00 | 0.00 | 0.00 | 61 | 1024.0 |
| 20260831094003 | 61 | 91 | 5.0 | 9.0 | 0.00 | 0.00 | 0.00 | 60 | 1024.0 |
| 20260831093524 | 61 | 86 | 5.0 | 11.0 | 0.00 | 0.00 | 0.00 | 60 | 1024.0 |
| 20260831093003 | 61 | 84 | 5.0 | 11.0 | 0.00 | 0.00 | 0.00 | 59 | 1024.0 |
| 20260831092503 | 61 | 83 | 5.0 | 10.0 | 0.00 | 0.00 | 0.00 | 59 | 1023.9 |
| 20260831092004 | 61 | 83 | 5.0 | 10.0 | 0.00 | 0.00 | 0.00 | 59 | 1024.0 |
| 20260831091503 | 61 | 85 | 5.0 | 10.0 | 0.00 | 0.00 | 0.00 | 59 | 1023.9 |
| 20260831091004 | 61 | 82 | 5.0 | 9.0 | 0.00 | 0.00 | 0.00 | 59 | 1023.9 |
| 20260831090525 | 62 | 81 | 4.0 | 9.0 | 0.00 | 0.00 | 0.00 | 58 | 1024.0 |
| 20260831090004 | 62 | 83 | 4.0 | 9.0 | 0.00 | 0.00 | 0.00 | 57 | 1024.1 |
| 20260831085525 | 62 | 85 | 4.0 | 9.0 | 0.00 | 0.00 | 0.00 | 57 | 1024.1 |
| 20260831085004 | 62 | 85 | 4.0 | 8.0 | 0.00 | 0.00 | 0.00 | 56 | 1024.1 |
| 20260831084503 | 62 | 89 | 4.0 | 9.0 | 0.00 | 0.00 | 0.00 | 56 | 1024.1 |
| 20260831084004 | 63 | 87 | 4.0 | 9.0 | 0.00 | 0.00 | 0.00 | 54 | 1024.1 |
| 20260831083503 | 64 | 83 | 4.0 | 9.0 | 0.00 | 0.00 | 0.00 | 53 | 1024.2 |
| 20260831083003 | 65 | 86 | 4.0 | 8.0 | 0.00 | 0.00 | 0.00 | 51 | 1024.1 |
| 20260831082503 | 66 | 81 | 4.0 | 8.0 | 0.00 | 0.00 | 0.00 | 50 | 1024.2 |
| 20260831082003 | 67 | 76 | 4.0 | 6.0 | 0.00 | 0.00 | 0.00 | 49 | 1024.2 |
| 20260831081503 | 68 | 70 | 4.0 | 8.0 | 0.00 | 0.00 | 0.00 | 47 | 1024.2 |
| 20260831081003 | 69 | 65 | 4.0 | 8.0 | 0.00 | 0.00 | 0.00 | 48 | 1024.1 |
| 20260831080503 | 69 | 58 | 4.0 | 9.0 | 0.00 | 0.00 | 0.00 | 47 | 1024.1 |
| 20260831080003 | 70 | 52 | 4.0 | 9.0 | 0.00 | 0.00 | 0.00 | 46 | 1024.0 |
| 20260831075503 | 71 | 52 | 4.0 | 9.0 | 0.00 | 0.00 | 0.00 | 46 | 1024.0 |
| 20260831075003 | 71 | 52 | 4.0 | 8.0 | 0.00 | 0.00 | 0.00 | 45 | 1023.9 |
| 20260831074503 | 72 | 50 | 4.0 | 9.0 | 0.00 | 0.00 | 0.00 | 45 | 1023.9 |
| 20260831074003 | 72 | 44 | 4.0 | 9.0 | 0.00 | 0.00 | 0.00 | 45 | 1023.9 |
| 20260831073503 | 72 | 40 | 5.0 | 9.0 | 0.00 | 0.00 | 0.00 | 45 | 1024.0 |
| 20260831073003 | 72 | 42 | 6.0 | 11.0 | 0.00 | 0.00 | 0.00 | 46 | 1024.1 |
| 20260831072503 | 72 | 37 | 6.0 | 11.0 | 0.00 | 0.00 | 0.00 | 45 | 1024.1 |
| 20260831072004 | 72 | 37 | 6.0 | 11.0 | 0.00 | 0.00 | 0.00 | 43 | 1024.1 |
| 20260831071524 | 73 | 39 | 6.0 | 11.0 | 0.00 | 0.00 | 0.00 | 44 | 1024.1 |
| 20260831071003 | 73 | 28 | 6.0 | 13.0 | 0.00 | 0.00 | 0.00 | 44 | 1024.1 |
| 20260831070525 | 73 | 26 | 6.0 | 13.0 | 0.00 | 0.00 | 0.00 | 43 | 1024.1 |
| 20260831070003 | 73 | 28 | 6.0 | 11.0 | 0.00 | 0.00 | 0.00 | 43 | 1024.2 |
| 20260831065504 | 74 | 31 | 5.0 | 11.0 | 0.00 | 0.00 | 0.00 | 43 | 1024.2 |
| 20260831065025 | 74 | 36 | 5.0 | 11.0 | 0.00 | 0.00 | 0.00 | 44 | 1024.2 |
| 20260831064504 | 74 | 34 | 6.0 | 11.0 | 0.00 | 0.00 | 0.00 | 42 | 1024.3 |
| 20260831064004 | 74 | 28 | 8.0 | 13.0 | 0.00 | 0.00 | 0.00 | 43 | 1024.3 |
| 20260831063504 | 73 | 24 | 8.0 | 13.0 | 0.00 | 0.00 | 0.00 | 43 | 1024.4 |
| 20260831063004 | 73 | 20 | 8.0 | 14.0 | 0.00 | 0.00 | 0.00 | 43 | 1024.5 |
| 20260831062525 | 73 | 20 | 8.0 | 14.0 | 0.00 | 0.00 | 0.00 | 42 | 1024.5 |
| 20260831062004 | 74 | 20 | 8.0 | 14.0 | 0.00 | 0.00 | 0.00 | 43 | 1024.5 |
| 20260831061503 | 74 | 24 | 8.0 | 17.0 | 0.00 | 0.00 | 0.00 | 42 | 1024.6 |
| 20260831061004 | 74 | 32 | 7.0 | 17.0 | 0.00 | 0.00 | 0.00 | 42 | 1024.6 |
| 20260831060525 | 74 | 22 | 7.0 | 14.0 | 0.00 | 0.00 | 0.00 | 43 | 1024.7 |
| 20260831060003 | 74 | 13 | 8.0 | 13.0 | 0.00 | 0.00 | 0.00 | 45 | 1024.7 |
| 20260831055503 | 74 | 13 | 8.0 | 15.0 | 0.00 | 0.00 | 0.00 | 43 | 1024.8 |
| 20260831055003 | 73 | 20 | 8.0 | 15.0 | 0.00 | 0.00 | 0.00 | 42 | 1024.8 |
| 20260831054503 | 73 | 23 | 9.0 | 15.0 | 0.00 | 0.00 | 0.00 | 43 | 1024.9 |
| 20260831054004 | 73 | 16 | 9.0 | 14.0 | 0.00 | 0.00 | 0.00 | 45 | 1024.8 |
| 20260831053504 | 73 | 16 | 8.0 | 14.0 | 0.00 | 0.00 | 0.00 | 42 | 1024.8 |
| 20260831053003 | 74 | 21 | 8.0 | 14.0 | 0.00 | 0.00 | 0.00 | 42 | 1024.9 |
| 20260831052503 | 74 | 28 | 8.0 | 13.0 | 0.00 | 0.00 | 0.00 | 41 | 1024.9 |
| 20260831052024 | 74 | 19 | 9.0 | 13.0 | 0.00 | 0.00 | 0.00 | 41 | 1025.0 |
| 20260831051504 | 74 | 16 | 8.0 | 14.0 | 0.00 | 0.00 | 0.00 | 38 | 1025.1 |
| 20260831051024 | 74 | 23 | 8.0 | 14.0 | 0.00 | 0.00 | 0.00 | 42 | 1025.1 |
| 20260831050504 | 73 | 18 | 8.0 | 14.0 | 0.00 | 0.00 | 0.00 | 41 | 1025.1 |
| 20260831050004 | 73 | 19 | 9.0 | 15.0 | 0.00 | 0.00 | 0.00 | 44 | 1025.2 |
| 20260831045503 | 73 | 23 | 9.0 | 15.0 | 0.00 | 0.00 | 0.00 | 41 | 1025.3 |
| 20260831045003 | 73 | 17 | 8.0 | 17.0 | 0.00 | 0.00 | 0.00 | 40 | 1025.3 |
| 20260831044503 | 73 | 26 | 8.0 | 17.0 | 0.00 | 0.00 | 0.00 | 39 | 1025.5 |
| 20260831044024 | 74 | 29 | 9.0 | 15.0 | 0.00 | 0.00 | 0.00 | 38 | 1025.6 |
| 20260831043524 | 73 | 18 | 10.0 | 15.0 | 0.00 | 0.00 | 0.00 | 44 | 1025.7 |
| 20260831043004 | 73 | 15 | 10.0 | 18.0 | 0.00 | 0.00 | 0.00 | 44 | 1025.7 |
| 20260831042504 | 73 | 12 | 10.0 | 18.0 | 0.00 | 0.00 | 0.00 | 44 | 1025.9 |
| 20260831042024 | 73 | 14 | 10.0 | 15.0 | 0.00 | 0.00 | 0.00 | 44 | 1026.0 |
| 20260831041503 | 73 | 22 | 10.0 | 15.0 | 0.00 | 0.00 | 0.00 | 42 | 1026.0 |
| 20260831041003 | 73 | 23 | 11.0 | 15.0 | 0.00 | 0.00 | 0.00 | 41 | 1026.1 |
| 20260831040524 | 73 | 11 | 11.0 | 18.0 | 0.00 | 0.00 | 0.00 | 44 | 1026.2 |
| 20260831040004 | 72 | 9 | 10.0 | 18.0 | 0.00 | 0.00 | 0.00 | 43 | 1026.3 |
| 20260831035503 | 73 | 18 | 9.0 | 15.0 | 0.00 | 0.00 | 0.00 | 42 | 1026.5 |
| 20260831035003 | 73 | 9 | 9.0 | 15.0 | 0.00 | 0.00 | 0.00 | 42 | 1026.7 |
| 20260831034504 | 73 | 7 | 10.0 | 15.0 | 0.00 | 0.00 | 0.00 | 44 | 1026.8 |
| 20260831034003 | 72 | 13 | 11.0 | 17.0 | 0.00 | 0.00 | 0.00 | 44 | 1026.9 |
| 20260831033504 | 72 | 10 | 12.0 | 19.0 | 0.00 | 0.00 | 0.00 | 45 | 1027.0 |
| 20260831033003 | 72 | 360 | 11.0 | 19.0 | 0.00 | 0.00 | 0.00 | 44 | 1027.0 |
| 20260831032504 | 72 | 5 | 9.0 | 19.0 | 0.00 | 0.00 | 0.00 | 44 | 1027.2 |
| 20260831032003 | 73 | 26 | 9.0 | 15.0 | 0.00 | 0.00 | 0.00 | 44 | 1027.2 |
| 20260831031503 | 73 | 28 | 9.0 | 15.0 | 0.00 | 0.00 | 0.00 | 44 | 1027.3 |
| 20260831031004 | 72 | 20 | 8.0 | 17.0 | 0.00 | 0.00 | 0.00 | 46 | 1027.4 |
| 20260831030525 | 72 | 18 | 8.0 | 17.0 | 0.00 | 0.00 | 0.00 | 44 | 1027.4 |
| 20260831030004 | 72 | 21 | 9.0 | 19.0 | 0.00 | 0.00 | 0.00 | 47 | 1027.6 |
| 20260831025503 | 72 | 22 | 9.0 | 19.0 | 0.00 | 0.00 | 0.00 | 45 | 1027.7 |
| 20260831025003 | 72 | 20 | 10.0 | 17.0 | 0.00 | 0.00 | 0.00 | 46 | 1027.8 |
| 20260831024503 | 72 | 11 | 10.0 | 18.0 | 0.00 | 0.00 | 0.00 | 46 | 1027.9 |
| 20260831024003 | 72 | 8 | 8.0 | 18.0 | 0.00 | 0.00 | 0.00 | 46 | 1028.0 |
| 20260831023503 | 72 | 20 | 7.0 | 17.0 | 0.00 | 0.00 | 0.00 | 47 | 1028.1 |
| 20260831023004 | 72 | 34 | 8.0 | 11.0 | 0.00 | 0.00 | 0.00 | 50 | 1028.2 |
| 20260831022524 | 71 | 14 | 9.0 | 17.0 | 0.00 | 0.00 | 0.00 | 52 | 1028.3 |
| 20260831022004 | 70 | 357 | 9.0 | 18.0 | 0.00 | 0.00 | 0.00 | 50 | 1028.4 |
| 20260831021504 | 70 | 6 | 8.0 | 18.0 | 0.00 | 0.00 | 0.00 | 49 | 1028.4 |
| 20260831021004 | 70 | 15 | 8.0 | 15.0 | 0.00 | 0.00 | 0.00 | 52 | 1028.5 |
| 20260831020503 | 70 | 20 | 9.0 | 17.0 | 0.00 | 0.00 | 0.00 | 52 | 1028.5 |
| 20260831020004 | 70 | 22 | 10.0 | 17.0 | 0.00 | 0.00 | 0.00 | 54 | 1028.6 |
| 20260831015525 | 70 | 21 | 10.0 | 17.0 | 0.00 | 0.00 | 0.00 | 52 | 1028.7 |
| 20260831015003 | 70 | 20 | 9.0 | 18.0 | 0.00 | 0.00 | 0.00 | 50 | 1028.8 |
| 20260831014503 | 70 | 21 | 9.0 | 18.0 | 0.00 | 0.00 | 0.00 | 52 | 1028.8 |
| 20260831014025 | 69 | 24 | 9.0 | 17.0 | 0.00 | 0.00 | 0.00 | 53 | 1028.9 |
| 20260831013503 | 69 | 33 | 10.0 | 17.0 | 0.00 | 0.00 | 0.00 | 52 | 1028.9 |
| 20260831013004 | 69 | 26 | 11.0 | 17.0 | 0.00 | 0.00 | 0.00 | 52 | 1029.0 |
| 20260831012503 | 68 | 24 | 11.0 | 19.0 | 0.00 | 0.00 | 0.00 | 51 | 1029.1 |
| 20260831012003 | 69 | 30 | 10.0 | 19.0 | 0.00 | 0.00 | 0.00 | 51 | 1029.1 |
| 20260831011503 | 69 | 24 | 9.0 | 19.0 | 0.00 | 0.00 | 0.00 | 52 | 1029.1 |
| 20260831011025 | 69 | 19 | 8.0 | 15.0 | 0.00 | 0.00 | 0.00 | 51 | 1029.1 |
| 20260831010504 | 69 | 23 | 7.0 | 14.0 | 0.00 | 0.00 | 0.00 | 53 | 1029.1 |
| 20260831010004 | 69 | 28 | 6.0 | 14.0 | 0.00 | 0.00 | 0.00 | 53 | 1029.1 |
| 20260831005504 | 69 | 21 | 6.0 | 14.0 | 0.00 | 0.00 | 0.00 | 53 | 1029.1 |
| 20260831005004 | 68 | 6 | 6.0 | 11.0 | 0.00 | 0.00 | 0.00 | 58 | 1029.2 |
| 20260831004525 | 67 | 4 | 6.0 | 10.0 | 0.00 | 0.00 | 0.00 | 55 | 1029.2 |
| 20260831004004 | 67 | 352 | 6.0 | 10.0 | 0.00 | 0.00 | 0.00 | 57 | 1029.2 |
| 20260831003504 | 66 | 318 | 6.0 | 13.0 | 0.00 | 0.00 | 0.00 | 60 | 1029.2 |
| 20260831003004 | 66 | 322 | 6.0 | 13.0 | 0.00 | 0.00 | 0.00 | 63 | 1029.4 |
| 20260831002504 | 65 | 328 | 5.0 | 10.0 | 0.00 | 0.00 | 0.00 | 62 | 1029.4 |
| 20260831002025 | 65 | 320 | 3.0 | 10.0 | 0.00 | 0.00 | 0.00 | 63 | 1029.3 |
| 20260831001504 | 64 | 304 | 1.0 | 9.0 | 0.00 | 0.00 | 0.00 | 65 | 1029.3 |
| 20260831001026 | 63 | 257 | 1.0 | 6.0 | 0.00 | 0.00 | 0.00 | 66 | 1029.3 |
| 20260831000525 | 62 | 268 | 1.0 | 3.0 | 0.00 | 0.00 | 0.00 | 66 | 1029.3 |
| 20260831000025 | 61 | 301 | 1.0 | 3.0 | 0.00 | 0.00 | 0.00 | 69 | 1029.3 |
| 20260830235504 | 60 | 312 | 1.0 | 3.0 | 0.00 | 0.00 | 0.00 | 70 | 1029.3 |
| 20260830235004 | 59 | 312 | 0.0 | 3.0 | 0.00 | 0.00 | 0.00 | 71 | 1029.3 |
| 20260830234504 | 58 | 312 | 0.0 | 3.0 | 0.00 | 0.00 | 0.00 | 72 | 1029.3 |
| 20260830234004 | 57 | 312 | 1.0 | 5.0 | 0.00 | 0.00 | 0.00 | 73 | 1029.3 |
| 20260830233525 | 57 | 321 | 2.0 | 5.0 | 0.00 | 0.00 | 0.00 | 74 | 1029.4 |
| 20260830233025 | 56 | 317 | 3.0 | 5.0 | 0.00 | 0.00 | 0.00 | 75 | 1029.4 |
| 20260830232504 | 56 | 307 | 4.0 | 6.0 | 0.00 | 0.00 | 0.00 | 74 | 1029.5 |
| 20260830232004 | 56 | 309 | 4.0 | 6.0 | 0.00 | 0.00 | 0.00 | 74 | 1029.5 |
| 20260830231504 | 56 | 293 | 4.0 | 6.0 | 0.00 | 0.00 | 0.00 | 74 | 1029.5 |
| 20260830231005 | 56 | 291 | 4.0 | 8.0 | 0.00 | 0.00 | 0.00 | 73 | 1029.5 |
| 20260830230525 | 57 | 294 | 4.0 | 8.0 | 0.00 | 0.00 | 0.00 | 72 | 1029.6 |
| 20260830230025 | 58 | 282 | 3.0 | 6.0 | 0.00 | 0.00 | 0.00 | 72 | 1029.5 |
| 20260830225504 | 58 | 307 | 4.0 | 6.0 | 0.00 | 0.00 | 0.00 | 71 | 1029.5 |
| 20260830225025 | 58 | 72 | 5.0 | 8.0 | 0.00 | 0.00 | 0.00 | 71 | 1029.5 |
| 20260830224504 | 58 | 99 | 6.0 | 9.0 | 0.00 | 0.00 | 0.00 | 72 | 1029.4 |
| 20260830224004 | 57 | 101 | 6.0 | 10.0 | 0.00 | 0.00 | 0.00 | 72 | 1029.4 |
| 20260830223525 | 57 | 102 | 7.0 | 11.0 | 0.00 | 0.00 | 0.00 | 73 | 1029.3 |
| 20260830223004 | 56 | 101 | 7.0 | 11.0 | 0.00 | 0.00 | 0.00 | 73 | 1029.4 |
| 20260830222504 | 56 | 104 | 7.0 | 11.0 | 0.00 | 0.00 | 0.00 | 74 | 1029.4 |
| 20260830222004 | 55 | 105 | 8.0 | 11.0 | 0.00 | 0.00 | 0.00 | 75 | 1029.4 |
| 20260830221504 | 55 | 102 | 8.0 | 13.0 | 0.00 | 0.00 | 0.00 | 75 | 1029.3 |
| 20260830221004 | 54 | 104 | 8.0 | 13.0 | 0.00 | 0.00 | 0.00 | 76 | 1029.3 |
| 20260830220504 | 54 | 103 | 8.0 | 11.0 | 0.00 | 0.00 | 0.00 | 76 | 1029.2 |
| 20260830220004 | 53 | 103 | 8.0 | 15.0 | 0.00 | 0.00 | 0.00 | 77 | 1029.2 |
| 20260830215525 | 53 | 105 | 7.0 | 15.0 | 0.00 | 0.00 | 0.00 | 77 | 1029.2 |
| 20260830215004 | 53 | 106 | 6.0 | 11.0 | 0.00 | 0.00 | 0.00 | 77 | 1029.2 |
| 20260830214504 | 53 | 106 | 6.0 | 11.0 | 0.00 | 0.00 | 0.00 | 77 | 1029.2 |
| 20260830214004 | 52 | 106 | 6.0 | 10.0 | 0.00 | 0.00 | 0.00 | 78 | 1029.3 |
| 20260830213504 | 52 | 110 | 6.0 | 11.0 | 0.00 | 0.00 | 0.00 | 78 | 1029.3 |
| 20260830213004 | 52 | 111 | 7.0 | 11.0 | 0.00 | 0.00 | 0.00 | 78 | 1029.2 |
| 20260830212504 | 52 | 107 | 8.0 | 11.0 | 0.00 | 0.00 | 0.00 | 78 | 1029.2 |
| 20260830212004 | 52 | 102 | 8.0 | 14.0 | 0.00 | 0.00 | 0.00 | 79 | 1029.2 |
| 20260830211504 | 52 | 103 | 9.0 | 14.0 | 0.00 | 0.00 | 0.00 | 80 | 1029.2 |
| 20260830211004 | 51 | 107 | 9.0 | 11.0 | 0.00 | 0.00 | 0.00 | 80 | 1029.3 |
| 20260830210504 | 51 | 107 | 9.0 | 13.0 | 0.00 | 0.00 | 0.00 | 80 | 1029.3 |
| 20260830210004 | 51 | 108 | 9.0 | 14.0 | 0.00 | 0.00 | 0.00 | 80 | 1029.2 |
| 20260830205504 | 51 | 108 | 8.0 | 14.0 | 0.00 | 0.00 | 0.00 | 80 | 1029.2 |
| 20260830205025 | 51 | 106 | 8.0 | 13.0 | 0.00 | 0.00 | 0.00 | 80 | 1029.3 |
| 20260830204504 | 51 | 104 | 8.0 | 11.0 | 0.00 | 0.00 | 0.00 | 80 | 1029.2 |
| 20260830204004 | 51 | 104 | 8.0 | 11.0 | 0.00 | 0.00 | 0.00 | 80 | 1029.2 |
| 20260830203525 | 51 | 103 | 8.0 | 11.0 | 0.00 | 0.00 | 0.00 | 80 | 1029.2 |
| 20260830203004 | 52 | 105 | 8.0 | 11.0 | 0.00 | 0.00 | 0.00 | 80 | 1029.2 |
| 20260830202504 | 52 | 106 | 8.0 | 11.0 | 0.00 | 0.00 | 0.00 | 80 | 1029.1 |
| 20260830202004 | 52 | 105 | 8.0 | 11.0 | 0.00 | 0.00 | 0.00 | 81 | 1029.1 |
| 20260830201525 | 52 | 100 | 8.0 | 11.0 | 0.00 | 0.00 | 0.00 | 81 | 1029.1 |
| 20260830201004 | 52 | 98 | 8.0 | 11.0 | 0.00 | 0.00 | 0.00 | 81 | 1029.0 |
| 20260830200504 | 52 | 101 | 8.0 | 10.0 | 0.00 | 0.00 | 0.00 | 81 | 1029.0 |
| 20260830200004 | 52 | 103 | 9.0 | 11.0 | 0.00 | 0.00 | 0.00 | 81 | 1029.0 |
| 20260830195504 | 52 | 106 | 8.0 | 11.0 | 0.00 | 0.00 | 0.00 | 81 | 1028.9 |
| 20260830195004 | 52 | 111 | 8.0 | 13.0 | 0.00 | 0.00 | 0.00 | 80 | 1028.9 |
| 20260830194504 | 52 | 112 | 8.0 | 13.0 | 0.00 | 0.00 | 0.00 | 80 | 1028.8 |
| 20260830194004 | 52 | 109 | 8.0 | 10.0 | 0.00 | 0.00 | 0.00 | 80 | 1028.8 |
| 20260830193504 | 52 | 109 | 8.0 | 10.0 | 0.00 | 0.00 | 0.00 | 80 | 1028.8 |
| 20260830193004 | 52 | 110 | 8.0 | 11.0 | 0.00 | 0.00 | 0.00 | 80 | 1028.8 |
| 20260830192525 | 52 | 109 | 8.0 | 11.0 | 0.00 | 0.00 | 0.00 | 79 | 1028.8 |
| 20260830192004 | 52 | 110 | 8.0 | 13.0 | 0.00 | 0.00 | 0.00 | 79 | 1028.7 |
| 20260830191504 | 52 | 111 | 8.0 | 13.0 | 0.00 | 0.00 | 0.00 | 78 | 1028.8 |
| 20260830191025 | 52 | 112 | 8.0 | 11.0 | 0.00 | 0.00 | 0.00 | 78 | 1028.9 |
| 20260830190503 | 52 | 114 | 8.0 | 11.0 | 0.00 | 0.00 | 0.00 | 79 | 1029.0 |
| 20260830190004 | 52 | 117 | 8.0 | 11.0 | 0.00 | 0.00 | 0.00 | 79 | 1029.0 |
| 20260830185504 | 52 | 119 | 8.0 | 10.0 | 0.00 | 0.00 | 0.00 | 79 | 1029.1 |
| 20260830185004 | 52 | 118 | 8.0 | 10.0 | 0.00 | 0.00 | 0.00 | 79 | 1028.9 |
| 20260830184504 | 52 | 117 | 8.0 | 10.0 | 0.00 | 0.00 | 0.00 | 78 | 1029.0 |
| 20260830184004 | 52 | 118 | 7.0 | 10.0 | 0.00 | 0.00 | 0.00 | 78 | 1029.1 |
| 20260830183503 | 52 | 119 | 6.0 | 10.0 | 0.00 | 0.00 | 0.00 | 78 | 1029.1 |
| 20260830183003 | 52 | 115 | 6.0 | 10.0 | 0.00 | 0.00 | 0.00 | 78 | 1029.2 |
| 20260830182504 | 52 | 110 | 7.0 | 9.0 | 0.00 | 0.00 | 0.00 | 78 | 1029.2 |
| 20260830182004 | 52 | 110 | 7.0 | 10.0 | 0.00 | 0.00 | 0.00 | 78 | 1029.2 |
| 20260830181504 | 52 | 107 | 8.0 | 10.0 | 0.00 | 0.00 | 0.00 | 79 | 1029.2 |
| 20260830181004 | 52 | 105 | 8.0 | 10.0 | 0.00 | 0.00 | 0.00 | 79 | 1029.3 |
| 20260830180503 | 51 | 109 | 7.0 | 10.0 | 0.00 | 0.00 | 0.00 | 80 | 1029.3 |
| 20260830180003 | 51 | 117 | 6.0 | 11.0 | 0.00 | 0.00 | 0.00 | 79 | 1029.3 |
| 20260830175503 | 51 | 122 | 6.0 | 11.0 | 0.00 | 0.00 | 0.00 | 79 | 1029.3 |
| 20260830175003 | 51 | 121 | 7.0 | 8.0 | 0.00 | 0.00 | 0.00 | 79 | 1029.2 |
| 20260830174504 | 52 | 113 | 7.0 | 9.0 | 0.00 | 0.00 | 0.00 | 79 | 1029.2 |
| 20260830174004 | 51 | 110 | 8.0 | 10.0 | 0.00 | 0.00 | 0.00 | 79 | 1029.3 |
| 20260830173503 | 51 | 111 | 9.0 | 10.0 | 0.00 | 0.00 | 0.00 | 80 | 1029.4 |
| 20260830173004 | 51 | 113 | 8.0 | 11.0 | 0.00 | 0.00 | 0.00 | 80 | 1029.4 |
| 20260830172504 | 51 | 115 | 7.0 | 11.0 | 0.00 | 0.00 | 0.00 | 79 | 1029.4 |
| 20260830172003 | 51 | 119 | 7.0 | 11.0 | 0.00 | 0.00 | 0.00 | 78 | 1029.5 |
| 20260830171503 | 51 | 115 | 6.0 | 9.0 | 0.00 | 0.00 | 0.00 | 78 | 1029.5 |
| 20260830171025 | 52 | 110 | 7.0 | 9.0 | 0.00 | 0.00 | 0.00 | 78 | 1029.5 |
| 20260830170504 | 52 | 114 | 8.0 | 9.0 | 0.00 | 0.00 | 0.00 | 78 | 1029.6 |
| 20260830170004 | 52 | 116 | 9.0 | 11.0 | 0.00 | 0.00 | 0.00 | 78 | 1029.7 |
| 20260830165504 | 52 | 114 | 9.0 | 11.0 | 0.00 | 0.00 | 0.00 | 78 | 1029.7 |
| 20260830165024 | 52 | 114 | 8.0 | 11.0 | 0.00 | 0.00 | 0.00 | 78 | 1029.8 |
| 20260830164503 | 52 | 114 | 8.0 | 13.0 | 0.00 | 0.00 | 0.00 | 79 | 1029.8 |
| 20260830164004 | 52 | 114 | 7.0 | 13.0 | 0.00 | 0.00 | 0.00 | 79 | 1029.9 |
| 20260830163504 | 51 | 110 | 7.0 | 11.0 | 0.00 | 0.00 | 0.00 | 79 | 1029.9 |
| 20260830163004 | 51 | 108 | 7.0 | 11.0 | 0.00 | 0.00 | 0.00 | 79 | 1030.0 |
| 20260830162504 | 52 | 110 | 7.0 | 10.0 | 0.00 | 0.00 | 0.00 | 78 | 1030.1 |
| 20260830162004 | 52 | 111 | 8.0 | 10.0 | 0.00 | 0.00 | 0.00 | 79 | 1030.2 |
| 20260830161503 | 52 | 111 | 9.0 | 10.0 | 0.00 | 0.00 | 0.00 | 79 | 1030.2 |
| 20260830161004 | 52 | 111 | 8.0 | 11.0 | 0.00 | 0.00 | 0.00 | 80 | 1030.2 |
| 20260830160503 | 52 | 111 | 7.0 | 11.0 | 0.00 | 0.00 | 0.00 | 81 | 1030.2 |
| 20260830160004 | 51 | 116 | 7.0 | 10.0 | 0.00 | 0.00 | 0.00 | 82 | 1030.3 |
| 20260830155503 | 51 | 122 | 7.0 | 10.0 | 0.00 | 0.00 | 0.00 | 82 | 1030.3 |
| 20260830155024 | 51 | 116 | 8.0 | 10.0 | 0.00 | 0.00 | 0.00 | 83 | 1030.2 |
| 20260830154504 | 51 | 100 | 9.0 | 15.0 | 0.00 | 0.00 | 0.00 | 83 | 1030.3 |
| 20260830154024 | 51 | 95 | 9.0 | 15.0 | 0.00 | 0.00 | 0.00 | 84 | 1030.3 |
| 20260830153504 | 50 | 97 | 7.0 | 13.0 | 0.00 | 0.00 | 0.00 | 85 | 1030.4 |
| 20260830153004 | 50 | 102 | 7.0 | 13.0 | 0.00 | 0.00 | 0.00 | 85 | 1030.4 |
| 20260830152503 | 50 | 105 | 7.0 | 13.0 | 0.00 | 0.00 | 0.00 | 85 | 1030.5 |
| 20260830152025 | 50 | 102 | 8.0 | 13.0 | 0.00 | 0.00 | 0.00 | 85 | 1030.5 |
| 20260830151503 | 50 | 97 | 8.0 | 11.0 | 0.00 | 0.00 | 0.00 | 85 | 1030.5 |
| 20260830151004 | 50 | 98 | 7.0 | 11.0 | 0.00 | 0.00 | 0.00 | 86 | 1030.5 |
| 20260830150504 | 49 | 103 | 6.0 | 11.0 | 0.00 | 0.00 | 0.00 | 86 | 1030.5 |
| 20260830150024 | 48 | 108 | 6.0 | 10.0 | 0.00 | 0.00 | 0.00 | 86 | 1030.4 |
| 20260830145503 | 48 | 119 | 6.0 | 8.0 | 0.00 | 0.00 | 0.00 | 85 | 1030.5 |